Location: Devargunta
(16.7631°N, 80.9077°E)
Time: 19:35:49
(UTC+00:00)

Daily predictions for brighter satellites

Satellite Brightness Start Highest point End
(mag) Time Altitude Azimuth Time Altitude Azimuth Time Altitude Azimuth
ATLAS 3B R/B 3.2 12:34:30 10° N 12:41:17 44° ENE 12:48:15 10° SE
Cosmos 1726 Rocket 4.0 12:40:05 10° NNE 12:44:11 39° E 12:48:18 10° SSE
Cosmos 1634 Rocket 4.3 12:40:05 10° N 12:46:19 75° W 12:52:36 10° S
SAR-Lupe-4 3.5 12:44:55 10° NNE 12:48:27 66° ESE 12:51:58 10° S
Okean-O 4.0 12:46:27 10° ESE 12:49:21 17° ENE 12:52:15 10° NNE
Cosmos 1939 Rocket 2.9 12:46:48 10° SSE 12:50:54 70° ENE 12:55:00 10° N
CZ-4B R/B 3.6 12:48:11 10° NNW 12:51:00 26° WNW 12:53:45 10° SW
Cosmos 1844 3.7 12:48:18 10° SSW 12:53:52 90° ESE 12:59:31 10° NNE
Okean O Rocket 2.6 12:49:56 10° S 12:54:16 53° W 12:58:36 10° NNW
SWIFT 2.8 12:53:26 10° W 12:57:36 50° N 13:01:28 12° ENE
Cosmos 1092 Rocket 4.5 12:52:04 10° SSE 12:57:48 39° E 13:03:28 10° NNE
SAR-Lupe-1 4.1 12:56:00 10° N 12:59:33 82° WNW 13:03:06 10° SSW
PSLV R/B 4.1 12:55:32 10° N 12:59:45 82° W 13:03:55 10° SSW
COSMO-SKYMED 1 4.3 12:56:11 10° N 13:00:07 35° WNW 13:04:03 10° SW
CZ-4 R/B 2.3 12:57:15 10° SE 13:00:48 27° ENE 13:04:18 10° NNE
Cosmos 1943 3.2 12:55:19 10° N 13:00:51 59° ENE 13:06:22 10° SSE
Cosmos 1340 3.9 12:58:19 10° SE 13:01:12 21° E 13:04:06 10° NE
Cosmos 783 Rocket 4.4 13:00:37 10° N 13:05:51 74° ENE 13:11:06 10° SSE
Cosmos 1455 3.6 13:03:42 10° NE 13:06:24 18° E 13:09:07 10° SE
CZ-4 R/B 4.5 13:02:58 10° SSE 13:07:00 55° ENE 13:11:01 10° N
GPS 2-14 Rocket1 3.2 13:03:06 10° WNW 13:07:05 47° N 13:10:12 16° ENE
MOS 1 Rocket 4.3 13:03:11 10° N 13:07:13 43° WNW 13:11:20 10° SSW
Meteor 1-21 Rocket 4.1 13:03:20 10° S 13:08:53 75° E 13:14:23 10° N
CZ-2C R/B 3.3 13:03:56 10° NNE 13:09:02 37° E 13:14:09 10° SSE
Cosmos 1300 4.2 13:06:09 10° NNW 13:09:43 40° W 13:13:17 10° SSW
IRS-1C Rocket 4.1 13:05:06 10° SSE 13:10:13 56° ENE 13:15:20 10° N
TIMED 4.4 13:05:54 10° NNW 13:10:16 85° ENE 13:14:37 10° SSE
Cosmos 1602 Rocket 3.7 13:11:20 10° SSE 13:15:28 48° E 13:19:38 10° NNE
Nadezhda 4 Rocket 4.3 13:10:07 10° S 13:16:23 72° W 13:22:37 10° N
YAOGAN 1 2.9 13:14:39 10° SE 13:18:41 39° ENE 13:22:42 10° N
NOSS 2-1 (C) 4.1 13:14:41 10° SW 13:18:43 47° WNW 13:22:04 10° N
Cosmos 1844 Rocket 4.2 13:14:41 10° SW 13:19:50 36° WNW 13:25:00 10° N
Cosmos 1689 Rocket 4.2 13:18:32 10° NNW 13:20:59 27° WNW 13:23:26 10° SW
GPS 2-12 Rocket1 3.0 13:17:47 10° W 13:22:11 65° N 13:24:46 23° ENE
FUSE 3.9 13:17:39 10° WNW 13:22:59 80° NNE 13:27:04 17° ESE
Cosmos 2278 Rocket 3.1 13:20:49 10° SSE 13:25:31 28° ESE 13:27:37 22° ENE
Cosmos 990 Rocket 4.0 13:22:06 10° SSW 13:27:20 85° WNW 13:32:34 10° NNE
CZ-2C R/B 3.1 13:23:15 10° S 13:28:13 81° WSW 13:33:29 10° NNW
Hubble Space Telescope 2.7 13:28:30 10° NW 13:31:25 18° N 13:32:56 15° NNE
GEOS 3 Rocket 4.1 13:32:59 25° ENE 13:35:23 39° ESE 13:40:09 10° S
ARIANE 5 R/B 4.1 13:03:05 10° WSW 13:35:41 40° SSW 13:40:43 12° SE
H-2A R/B 1.8 13:33:23 10° SSE 13:38:14 65° ENE 13:43:09 10° N
Helios 1A Rocket 2.9 13:36:13 10° SSE 13:40:15 58° ENE 13:44:18 10° N
Cosmos 858 Rocket 4.4 13:35:15 10° S 13:40:28 69° ESE 13:44:21 18° NNE
SJ 16-02 3.9 13:37:53 10° WSW 13:41:07 20° WNW 13:44:20 10° NNW
CSL-04 Rocket 3.9 13:37:58 10° SE 13:42:59 43° ENE 13:48:02 10° N
BREEZE-M DEB (TANK) 1.7 13:43:55 10° SW 13:48:46 71° SE 13:48:52 70° ESE
Cosmos 1898 Rocket 4.2 13:46:48 10° SSW 13:51:58 54° WNW 13:57:07 10° N
Cosmos 2026 Rocket 4.0 13:47:45 10° S 13:53:49 80° W 13:59:55 10° N
Cosmos 2098 Rocket 4.0 13:49:44 10° S 13:55:46 81° E 14:02:56 10° N
Meteor 2-1 Rocket 4.1 13:50:24 10° N 13:55:55 89° W 14:01:25 10° S
CCE 1 Rocket 3.8 13:55:50 10° WNW 14:02:12 79° SSW 14:03:15 53° SE
Meteor 2-19 Rocket 4.4 14:00:53 10° S 14:07:02 85° W 14:12:43 12° N
DELTA 2 R/B (1) 4.4 14:11:08 10° NW 14:14:56 36° N 14:14:56 36° N
Delta 168 4.2 14:16:38 10° W 14:18:33 30° WSW 14:18:33 30° WSW
Palapa 6 Rocket 4.1 14:15:41 10° W 14:20:23 38° SSW 14:20:46 37° SSW
ARGOS 3.6 14:18:25 10° S 14:23:40 59° WSW 14:28:55 10° NNW
Cosmos 1346 Rocket 4.5 14:23:07 10° SSW 14:25:14 29° SSW 14:25:14 29° SSW
Milstar 3 2.6 14:26:57 10° WSW 14:35:35 86° SSE 14:36:01 80° E
Cosmos 2278 Rocket 4.1 15:05:00 10° WSW 15:09:24 23° WNW 15:09:33 23° WNW
Centaur D-1AR AC-48 4.5 15:16:22 10° WNW 15:18:09 18° WNW 15:18:09 18° WNW
ATLAS 2A CENTAUR R/B 3.8 14:50:08 10° WSW 15:21:26 82° WNW 15:21:26 82° WNW
Atlas Centaur 2 4.4 22:01:38 29° ENE 22:01:38 29° ENE 22:05:19 10° ENE
Aurora 2 Rocket 4.4 22:45:26 33° ENE 22:45:26 33° ENE 22:48:50 10° ENE
Milstar 3 4.4 22:47:35 54° W 22:51:58 75° SSW 23:16:57 10° SE
Cosmos 1818 4.1 22:55:40 55° E 22:55:40 55° E 23:00:35 10° SE
Chandra Rocket (1) 4.3 23:01:22 18° NNE 23:01:22 18° NNE 23:02:18 10° NE
SL-4 R/B 3.6 23:11:55 28° E 23:11:55 28° E 23:14:30 10° ENE
SL-24 R/B - RUBIN 2 4.0 23:13:04 63° SSE 23:13:04 63° SSE 23:16:55 10° SSE
Cosmos 2263 Rocket 4.3 23:19:13 12° SSW 23:19:13 12° SSW 23:19:46 10° SSW
ADEOS Rocket 4.5 23:08:17 10° SSW 23:12:54 30° SW 23:12:54 30° SW
NOSS 0 Rocket 4.1 23:11:54 10° S 23:18:03 70° ESE 23:24:13 10° NNE
Landsat 5 4.3 23:17:36 10° S 23:20:43 43° S 23:20:43 43° S
deb Chang Zheng 4 4.1 23:19:33 10° NNE 23:23:42 56° ESE 23:27:50 10° S
COSMOS 2455 3.0 23:27:02 49° WSW 23:27:02 49° WSW 23:32:44 10° S
Delta 198 4.3 23:28:56 33° NE 23:28:56 33° NE 23:31:37 10° E
BREEZE-M R/B 4.4 23:29:39 32° SW 23:29:39 32° SW 23:32:24 10° S
Cosmos 1777 Rocket 3.9 23:27:35 45° NNW 23:29:14 87° WSW 23:34:29 10° SSE
IRIDIUM 114 4.4 23:25:13 10° S 23:30:25 78° E 23:35:37 10° N
ATLAS 3B CENTAUR R/B 3.9 23:26:17 38° WNW 23:31:19 87° NNE 23:51:02 10° ESE
Cosmos 1953 4.4 23:29:09 10° SSE 23:32:33 27° E 23:35:57 10° NNE
CZ-3A R/B 3.8 23:27:02 34° WNW 23:33:29 65° N 23:41:31 10° E
Gbstr 26 Del rocket 4.2 23:30:47 29° SW 23:34:28 67° NW 23:42:14 10° NNE
USA 307 4.4 23:31:21 10° S 23:35:15 36° ESE 23:39:08 10° NE
Meteor 1-24 Rocket 4.0 23:30:23 10° N 23:35:55 67° E 23:41:40 10° SSE
DELTA 4 R/B 1.8 23:36:25 54° SE 23:36:25 54° SE 23:38:20 10° E
Meteor 2-10 4.1 23:31:29 10° S 23:37:12 82° W 23:42:52 10° N
USA 267 3.4 23:31:41 10° SSE 23:38:03 57° SW 23:40:43 35° WNW
ATLAS 2A CENTAUR R/B 3.0 23:36:42 31° SW 23:38:24 41° SSW 23:51:18 10° SE
IRIDIUM 103 4.2 23:34:21 10° S 23:39:32 82° W 23:44:45 10° N
COSMO-SKYMED 1 4.2 23:38:09 10° SE 23:42:02 33° ENE 23:45:55 10° NNE
USA 308 3.9 23:39:49 10° SSW 23:43:53 47° ESE 23:47:56 10° NE
USA 305 3.6 23:40:59 10° SSW 23:45:08 53° ESE 23:49:15 10° NE
Cosmos 1844 4.1 23:40:01 10° N 23:45:45 63° ENE 23:51:26 10° SSE
BREEZE-M DEB (TANK) 4.5 23:27:30 10° SW 23:47:02 85° NW 23:51:18 10° NE
Atlas Centaur 2 3.5 23:44:16 30° WNW 23:47:22 42° NNW 23:55:21 10° NE
Cosmos 540 Rocket 3.3 23:47:29 10° SSW 23:52:34 82° WNW 23:57:41 10° N
Cosmos 1626 3.7 23:54:44 21° SW 23:54:44 21° SW 23:56:19 10° SSW
SJ-12 4.3 23:53:41 38° WNW 23:53:55 39° WNW 23:57:46 10° SW
ERS-2 4.2 23:51:03 10° SE 23:54:09 27° ENE 23:57:14 10° NNE
YAOGAN 6 4.1 23:51:00 10° NNE 23:54:28 39° E 23:57:56 10° S
